Wind_Speed
8 8 8 8 8 8 8 9 8 8 8 8 8 8 8 7 7 7 5 5 4 4 5 5 5 5 5 6 6 6 6 6 5 5 6 6 7 8 8 8 9 9 9
7 7 7 8 8 8 9 9 9 9 9 9 9 9 8 8 8 7 6 5 6 6 6 6 6 6 6 7 7 7 7 6 6 6 6 7 7 8 8 9 9 9 10
8 7 7 8 8 8 9 9 9 9 10 10 9 9 9 9 8 8 7 7 6 7 7 7 7 7 7 8 8 8 8 8 8 8 8 8 9 9 10 10 11 11 11
9 8 8 8 8 8 9 9 9 10 10 10 10 10 10 9 9 9 8 8 7 7 8 7 7 8 8 8 9 9 9 9 10 10 10 10 10 11 11 12 12 13 13
9 9 8 9 8 9 10 10 10 10 10 10 10 11 10 10 9 9 9 9 8 8 8 8 8 9 9 10 11 10 10 11 11 12 12 13 13 12 12 13 13 14 14
9 9 9 9 10 11 11 12 11 11 11 12 11 11 11 10 10 10 10 10 9 9 10 10 10 10 11 11 12 11 11 12 13 13 14 14 14 14 14 14 14 15 15
11 10 10 10 11 11 11 12 12 12 12 13 12 12 11 11 11 11 11 11 11 11 11 11 11 12 12 12 12 12 11 12 13 14 14 14 14 14 15 16 16 16 17
12 12 13 12 11 12 12 12 12 13 13 12 12 12 12 12 12 12 12 12 12 12 13 13 12 13 13 13 14 14 13 14 14 14 14 14 15 15 16 17 18 18 18
15 14 14 13 13 13 12 13 13 13 14 14 13 13 13 13 13 13 13 13 13 13 14 14 13 14 14 15 15 15 14 14 15 15 15 15 16 16 16 17 18 17 18
16 15 15 14 14 14 14 14 14 14 14 14 14 13 13 13 14 14 14 14 14 14 14 14 15 15 16 16 16 16 15 15 15 16 16 16 16 17 17 17 17 17 18
17 18 16 16 16 16 15 15 15 14 15 15 15 15 15 15 15 15 15 15 15 15 15 15 16 17 17 17 18 17 17 17 17 18 17 17 17 17 17 17 17 18 18
18 19 18 17 17 16 16 15 16 16 16 16 16 16 16 16 16 16 16 16 16 16 16 16 17 18 18 18 18 18 18 18 18 18 18 18 18 18 17 17 18 19 19
19 20 20 19 18 17 17 17 17 17 17 18 18 17 17 17 17 17 18 18 17 17 17 17 18 19 19 19 19 20 20 19 19 19 20 20 20 19 20 20 20 20 20
19 19 20 20 19 18 19 19 19 19 19 19 19 19 18 18 18 19 19 19 18 18 18 19 19 20 20 20 21 21 21 20 20 21 21 22 21 21 22 22 22 21 21
19 19 20 20 20 20 20 21 21 20 20 21 20 20 20 19 20 20 20 19 19 19 19 19 20 21 22 22 21 22 22 21 22 22 22 22 22 22 22 22 22 22 22
19 19 20 21 21 22 22 22 21 21 21 21 21 21 20 20 20 21 20 20 20 20 20 21 21 22 23 23 23 23 23 23 23 23 22 23 23 22 23 23 23 23 22
21 22 23 22 22 23 23 22 22 21 21 21 21 21 21 21 22 22 22 21 22 22 22 22 23 23 23 24 24 23 24 24 24 24 24 24 23 23 23 23 23 22 22
23 23 23 23 24 23 23 23 22 22 22 22 22 22 22 23 23 23 23 23 23 23 23 23 24 24 24 23 23 24 25 25 25 25 26 26 25 25 24 24 23 22 22
26 25 25 25 25 25 24 23 23 22 22 22 23 23 23 24 24 24 24 24 24 24 24 24 24 24 24 25 25 25 26 26 26 26 26 26 26 26 25 24 24 24 24
26 26 26 26 26 26 25 24 24 24 24 23 23 24 25 25 25 25 24 24 24 25 25 26 25 25 25 25 26 26 26 26 26 26 25 25 25 26 25 25 24 24 24
27 28 28 28 27 27 26 26 25 24 24 24 24 25 25 26 26 25 25 25 25 25 26 26 26 26 26 26 26 26 26 26 25 25 24 24 25 24 24 24 24 24 23
28 28 29 28 28 27 26 26 26 25 25 25 25 25 25 25 26 26 26 26 26 26 26 26 26 27 27 26 26 26 27 27 26 25 24 24 24 24 24 24 24 23 23
29 29 29 27 26 26 25 25 25 26 26 26 26 25 25 26 26 26 26 26 27 27 27 27 27 27 27 26 26 26 27 27 26 26 25 24 24 24 24 24 24 23 23
30 29 29 30 29 28 27 26 26 25 26 26 26 26 26 26 26 26 26 27 27 27 27 27 26 26 26 26 26 26 27 26 26 25 24 24 23 23 23 24 24 24 24
29 30 30 30 30 29 27 27 27 26 26 27 27 26 26 27 27 28 28 28 28 28 27 27 27 26 26 26 26 26 26 26 25 25 25 24 23 23 24 24 24 24 23
30 30 30 30 30 30 29 27 27 27 28 28 28 28 27 28 28 28 28 28 28 28 28 28 27 27 26 26 26 26 26 25 25 25 25 25 24 24 25 24 24 23 23
Wind_Direction
13 13 9 7 9 6 1 357 355 355 356 355 351 346 343 340 339 334 327 324 318 318 322 322 318 318 316 317 319 316 314 317 306 290 285 269 264 263 261 258 256 255 252
7 3 0 358 0 354 346 343 342 344 348 348 346 342 338 333 329 329 325 317 314 310 307 309 307 308 312 312 312 313 309 306 300 290 284 268 262 265 265 262 258 257 256
351 347 345 345 345 342 339 334 334 338 337 338 338 337 332 328 326 322 317 310 309 311 305 302 303 305 306 305 305 306 302 299 296 293 284 272 264 264 268 266 262 260 258
345 340 337 339 337 336 334 331 329 331 332 334 335 333 329 325 319 316 316 307 300 302 301 301 302 306 306 304 303 302 300 296 293 291 284 277 270 266 267 267 263 261 260
329 330 326 329 330 328 327 325 322 323 324 325 327 330 327 323 318 314 312 308 300 295 295 297 299 301 302 301 301 297 295 294 292 291 287 283 277 272 269 267 266 262 262
316 316 319 321 322 322 323 323 324 325 318 318 320 321 322 320 316 313 308 303 297 292 288 289 293 294 295 295 294 292 292 292 292 292 290 289 284 277 272 269 265 264 263
307 309 310 313 315 319 320 322 321 321 318 316 317 318 319 317 311 309 307 303 298 293 288 288 290 291 292 293 290 289 293 293 292 291 290 290 289 286 281 275 269 265 263
302 305 305 307 313 312 312 314 315 316 316 314 317 316 315 314 309 305 302 300 297 293 287 287 289 288 289 292 293 290 290 292 293 292 291 290 287 287 286 282 275 270 266
303 304 305 307 310 311 310 310 310 311 311 313 314 314 313 312 311 305 299 298 297 294 290 288 288 288 288 291 293 291 290 290 290 292 294 292 289 288 286 283 279 273 270
303 303 307 305 306 305 305 307 309 310 310 313 313 311 311 310 310 308 304 300 296 293 290 289 288 289 290 290 291 290 289 289 287 290 292 292 291 289 288 285 281 276 274
306 307 307 308 309 309 306 305 308 307 306 307 308 307 305 305 304 304 302 301 297 292 288 287 286 287 288 289 289 288 287 286 285 288 290 288 290 289 289 286 282 281 280
301 301 301 304 305 307 305 304 306 304 302 302 304 304 303 302 300 300 299 296 295 292 288 287 287 288 288 287 287 289 287 285 287 289 290 289 288 287 287 286 284 283 282
300 298 298 301 302 303 303 303 303 302 302 302 302 302 302 301 300 299 298 296 292 290 288 287 288 289 289 287 286 285 285 284 287 290 290 290 287 286 284 284 285 282 282
296 295 294 297 298 299 301 300 300 300 299 299 298 299 299 299 298 298 297 295 291 288 287 286 287 287 288 287 287 286 284 283 285 289 290 289 287 285 284 284 285 283 281
292 291 291 294 294 296 298 298 297 295 295 294 294 296 297 297 297 296 296 294 291 288 288 288 287 287 288 289 289 289 287 287 288 288 288 287 285 284 284 282 285 285 282
289 291 290 292 293 293 293 295 294 292 292 292 291 293 294 296 296 296 294 294 293 289 288 287 288 287 288 288 288 288 289 288 286 287 287 287 286 283 283 283 284 284 283
288 289 289 290 291 291 290 289 290 289 289 289 289 289 291 292 293 294 294 293 293 292 290 289 288 288 288 287 287 287 288 289 287 287 287 288 286 283 283 283 283 283 283
287 289 291 290 290 289 289 288 287 286 285 286 287 289 289 291 292 292 292 292 292 292 292 291 289 287 286 286 287 286 288 289 289 288 288 287 285 284 281 280 282 282 281
285 286 288 289 290 288 286 285 285 285 285 286 287 288 289 290 291 291 290 289 290 291 291 291 291 289 287 286 286 287 288 290 290 287 287 287 286 284 281 281 282 281 281
284 283 285 287 288 287 284 283 283 284 285 285 287 287 288 289 290 290 289 289 290 292 291 290 290 290 289 288 287 287 287 288 288 288 287 286 285 282 280 280 281 280 280
278 278 281 283 284 286 285 283 284 285 285 285 286 287 288 289 289 290 289 288 290 292 292 291 289 289 288 288 288 287 287 288 288 288 289 288 286 284 283 281 279 278 277
275 276 279 280 281 282 283 283 283 284 285 285 286 287 289 288 289 290 290 291 290 290 291 290 289 289 288 287 287 287 287 286 286 287 288 289 286 284 283 282 281 278 275
274 275 277 280 282 282 280 282 283 284 285 285 285 287 288 288 287 288 289 290 291 290 291 289 288 288 288 286 286 285 286 286 285 285 287 287 286 285 284 282 281 279 277
275 276 278 280 282 284 282 282 284 284 284 284 285 287 288 289 288 288 289 290 290 290 290 289 289 288 287 287 286 285 285 286 284 284 285 287 285 285 284 283 282 280 278
275 275 276 278 281 283 283 283 283 285 284 284 285 286 288 288 288 289 289 288 288 288 289 289 289 288 286 285 285 285 285 285 283 282 283 284 284 284 284 284 284 282 278
276 275 275 277 280 281 283 283 284 284 285 284 283 284 286 286 287 287 288 289 289 289 289 288 287 287 285 284 285 285 286 284 282 281 282 283 283 285 285 284 283 281 279
Height
5907 5906 5905 5903 5902 5901 5899 5898 5897 5895 5893 5892 5890 5889 5887 5886 5885 5883 5882 5881 5881 5880 5880 5880 5879 5879 5878 5878 5877 5876 5875 5874 5873 5873 5872 5872 5871 5871 5870 5870 5871 5871 5871
5906 5906 5905 5903 5901 5900 5898 5897 5895 5894 5892 5891 5889 5887 5886 5885 5883 5882 5881 5880 5879 5879 5879 5878 5878 5877 5877 5876 5875 5874 5873 5873 5871 5871 5870 5870 5870 5869 5868 5868 5868 5868 5868
5905 5904 5903 5902 5900 5898 5897 5895 5894 5893 5891 5890 5888 5886 5885 5883 5882 5880 5879 5878 5878 5877 5877 5877 5876 5875 5875 5874 5873 5872 5871 5870 5869 5868 5868 5867 5866 5866 5866 5865 5865 5865 5865
5904 5903 5901 5900 5898 5897 5895 5894 5893 5891 5889 5888 5886 5885 5883 5881 5880 5878 5877 5876 5876 5875 5875 5874 5874 5873 5872 5871 5870 5869 5868 5867 5866 5866 5865 5864 5864 5864 5863 5863 5862 5862 5862
5903 5901 5899 5898 5896 5895 5894 5892 5891 5889 5888 5886 5885 5883 5881 5880 5878 5876 5875 5874 5873 5873 5872 5872 5871 5871 5870 5869 5868 5866 5865 5864 5863 5863 5862 5861 5860 5860 5859 5859 5859 5858 5858
5900 5898 5897 5896 5894 5893 5892 5890 5888 5887 5886 5884 5883 5881 5879 5877 5876 5874 5873 5871 5870 5870 5869 5869 5868 5867 5866 5865 5864 5863 5862 5861 5860 5859 5858 5857 5857 5856 5855 5854 5854 5854 5854
5897 5895 5894 5893 5892 5891 5889 5888 5886 5885 5884 5882 5880 5878 5877 5875 5873 5872 5870 5869 5868 5867 5866 5865 5865 5864 5863 5862 5860 5859 5858 5858 5857 5856 5854 5853 5852 5851 5851 5850 5850 5849 5849
5894 5892 5891 5890 5889 5888 5887 5885 5884 5882 5880 5879 5877 5876 5874 5872 5871 5869 5867 5866 5865 5863 5863 5861 5861 5860 5859 5858 5857 5856 5855 5854 5853 5852 5850 5849 5848 5847 5846 5846 5845 5845 5844
5890 5889 5888 5887 5886 5885 5883 5882 5880 5879 5877 5875 5874 5872 5871 5869 5867 5866 5864 5863 5861 5860 5859 5858 5857 5856 5855 5854 5853 5852 5851 5850 5849 5847 5846 5845 5844 5843 5842 5841 5840 5839 5839
5886 5885 5884 5883 5882 5881 5880 5878 5877 5875 5873 5872 5870 5869 5867 5865 5864 5862 5861 5859 5858 5856 5855 5854 5853 5852 5851 5850 5849 5848 5846 5845 5844 5843 5841 5840 5839 5838 5837 5835 5835 5834 5833
5882 5881 5880 5879 5878 5877 5875 5874 5872 5871 5870 5868 5866 5864 5863 5862 5860 5858 5857 5855 5854 5852 5851 5850 5849 5847 5846 5845 5844 5842 5842 5840 5839 5838 5836 5835 5834 5833 5831 5830 5829 5828 5827
5878 5877 5876 5875 5873 5872 5871 5870 5868 5866 5865 5863 5861 5860 5859 5857 5855 5854 5852 5851 5849 5848 5846 5845 5844 5842 5841 5839 5838 5837 5836 5835 5833 5832 5831 5830 5828 5827 5826 5825 5824 5823 5821
5873 5872 5871 5870 5869 5868 5866 5865 5863 5862 5860 5858 5857 5855 5854 5852 5851 5849 5847 5846 5844 5843 5841 5840 5839 5837 5836 5834 5833 5832 5830 5829 5828 5827 5825 5824 5823 5821 5820 5819 5818 5817 5815
5868 5868 5867 5866 5865 5863 5861 5860 5859 5857 5855 5854 5852 5851 5849 5847 5846 5844 5842 5840 5839 5837 5836 5834 5833 5832 5830 5828 5827 5826 5824 5823 5822 5821 5819 5818 5817 5815 5814 5812 5811 5810 5809
5864 5863 5862 5861 5860 5858 5856 5855 5853 5852 5850 5848 5847 5845 5844 5842 5840 5839 5837 5835 5833 5832 5830 5829 5827 5826 5824 5822 5821 5820 5818 5817 5816 5814 5813 5811 5810 5808 5807 5806 5805 5803 5802
5859 5858 5857 5856 5854 5853 5851 5849 5848 5846 5845 5843 5841 5840 5838 5836 5835 5833 5831 5829 5827 5826 5825 5823 5822 5820 5818 5817 5815 5814 5812 5811 5809 5808 5806 5805 5803 5801 5800 5799 5797 5796 5795
5853 5852 5851 5850 5849 5848 5846 5844 5842 5841 5839 5837 5836 5834 5832 5831 5829 5827 5826 5824 5822 5820 5818 5817 5815 5813 5812 5810 5809 5807 5806 5804 5803 5801 5800 5798 5796 5794 5793 5792 5790 5789 5787
5846 5845 5844 5843 5842 5841 5839 5837 5835 5834 5832 5831 5830 5828 5826 5825 5823 5821 5819 5818 5816 5814 5812 5810 5808 5806 5805 5803 5802 5800 5799 5797 5796 5794 5792 5791 5789 5787 5785 5784 5783 5782 5780
5839 5838 5837 5836 5835 5833 5831 5830 5829 5827 5826 5824 5823 5821 5819 5818 5816 5814 5812 5811 5809 5807 5805 5803 5801 5799 5798 5796 5794 5793 5791 5790 5788 5786 5785 5783 5782 5780 5778 5776 5775 5774 5772
5832 5831 5830 5829 5827 5825 5824 5823 5822 5820 5819 5817 5815 5814 5812 5810 5809 5807 5805 5803 5802 5800 5798 5796 5794 5792 5790 5789 5787 5785 5783 5782 5780 5778 5777 5775 5774 5772 5770 5769 5768 5767 5765
5824 5823 5822 5821 5820 5818 5816 5815 5814 5813 5812 5810 5808 5806 5804 5803 5801 5800 5798 5796 5794 5793 5791 5789 5787 5785 5783 5781 5779 5777 5776 5774 5772 5770 5768 5767 5765 5764 5762 5761 5760 5759 5757
5816 5815 5813 5812 5811 5809 5808 5807 5806 5805 5804 5802 5801 5799 5797 5795 5794 5792 5791 5789 5787 5785 5783 5781 5779 5777 5775 5773 5771 5769 5768 5766 5764 5763 5761 5759 5758 5756 5755 5753 5752 5751 5750
5808 5806 5805 5804 5802 5801 5800 5799 5798 5797 5796 5794 5792 5791 5789 5787 5786 5784 5783 5781 5779 5777 5775 5773 5771 5769 5767 5765 5763 5761 5760 5758 5757 5755 5754 5752 5750 5749 5747 5746 5744 5743 5742
5799 5798 5797 5795 5794 5793 5792 5790 5790 5789 5787 5786 5784 5783 5781 5779 5778 5776 5774 5773 5771 5769 5767 5765 5763 5761 5759 5757 5755 5753 5751 5750 5748 5747 5746 5744 5743 5741 5740 5738 5736 5735 5734
5789 5789 5788 5787 5786 5785 5784 5782 5782 5781 5779 5778 5776 5774 5773 5771 5770 5768 5766 5764 5762 5760 5758 5756 5754 5752 5750 5749 5747 5745 5743 5742 5740 5739 5738 5737 5736 5734 5732 5731 5729 5728 5726
5780 5779 5779 5778 5777 5776 5775 5774 5773 5772 5771 5770 5768 5767 5765 5763 5761 5759 5758 5755 5754 5752 5749 5748 5746 5744 5742 5740 5739 5737 5736 5734 5732 5731 5730 5729 5728 5726 5725 5723 5721 5720 5719